This demonstration page uses our WeatherBlox Daily Observations layout. Learn more.

Left ArrowRight Arrow

Hourly Observations for April 15, 2015

Temp ( °F °C ) Dew Point ( °F °C ) Humidity (%) Winds ( mph kmh ) Pressure ( in mb ) Visibility ( mi km ) Precip ( " mm )
12:53 am 00:53 Clear 53 11.7 38 3.3 57 57 NE 8 13 30.2 1023 10 16.0934 0 0
1:53 am 01:53 Clear 52 11.1 38 3.3 59 59 ENE 7 11 30.19 1023 10 16.0934 0 0
2:53 am 02:53 Clear 49 9.4 36 2.2 61 61 E 6 9 30.19 1022 10 16.0934 0 0
3:53 am 03:53 Clear 46 7.8 39 3.9 77 77 Calm 30.19 1022 10 16.0934 0 0
4:53 am 04:53 Clear 46 7.8 37 2.8 71 71 NNE 7 11 30.19 1022 10 16.0934 0 0
5:53 am 05:53 Clear 48 8.9 35 1.7 61 61 NE 6 9 30.17 1022 10 16.0934 0 0
6:53 am 06:53 Clear 48 8.9 34 1.1 58 58 ENE 3 6 30.18 1022 10 16.0934 0 0
7:53 am 07:53 Sunny 49 9.4 34 1.1 56 56 ENE 5 7 30.2 1023 10 16.0934 0 0
8:53 am 08:53 Sunny 52 11.1 34 1.1 50 50 ENE 9 15 30.21 1023 10 16.0934 0 0
9:53 am 09:53 Sunny 54 12.2 34 1.1 47 47 NE 9 15 30.22 1023 10 16.0934 0 0
10:53 am 10:53 Sunny 56 13.3 35 1.7 46 46 ENE 15 24 30.22 1023 10 16.0934 0 0
11:53 am 11:53 Sunny 60 15.6 36 2.2 41 41 ENE 15 24 30.22 1023 10 16.0934 0 0
12:53 pm 12:53 Sunny 62 16.7 36 2.2 38 38 E 15 24 30.22 1023 10 16.0934 0 0
1:53 pm 13:53 Mostly Sunny 65 18.3 37 2.8 36 36 E 17 28 30.2 1023 10 16.0934 0 0
2:53 pm 14:53 Mostly Sunny 67 19.4 39 3.9 36 36 E 15 24 30.18 1022 10 16.0934 0 0
3:53 pm 15:53 Cloudy 65 18.3 41 5 42 42 E 10 17 30.18 1022 10 16.0934 0 0
4:53 pm 16:53 Cloudy 66 18.9 41 5 40 40 E 13 20 30.16 1021 10 16.0934 0 0
5:53 pm 17:53 Cloudy 65 18.3 43 6.1 45 45 ESE 5 7 30.16 1021 10 16.0934 0 0
6:53 pm 18:53 Cloudy with Light Rain 59 15 50 10 72 72 SE 6 9 30.19 1022 10 16.0934 0.01 0.254
7:53 pm 19:53 Cloudy 58 14.4 50 10 75 75 E 5 7 30.17 1022 10 16.0934 0 0.0254
8:53 pm 20:53 Cloudy 58 14.4 50 10 75 75 ESE 6 9 30.19 1022 10 16.0934 0 0
9:53 pm 21:53 Cloudy 58 14.4 49 9.4 72 72 E 6 9 30.19 1023 10 16.0934 0 0
10:44 pm 22:44 Cloudy 58 14.4 48 8.9 70 70 E 9 15 30.21 1023 10 16.0934 0 0
10:53 pm 22:53 Cloudy 58 14.4 47 8.3 67 67 E 8 13 30.19 1023 10 16.0934 0 0
11:53 pm 23:53 Cloudy 59 15 44 6.7 58 58 E 6 9 30.18 1022 10 16.0934 0 0

Powered by AerisWeather